User: anonymous   Login
Location: Estes Park
(40.3770°N, 105.5210°W)
Time: 02:19:47
(UTC-07:00)
Language:

POLYITAN 1 - Orbit

View from above orbital plane
View from above orbital plane
View from above satellite
View from above satellite

Ground track
Ground track

The orbit data is extracted from the following two-line orbital elements,

1 40042U 14033AJ  18015.18841071  .00000381  00000-0  47255-4 0  9995
2 40042  97.9168 290.9352 0013966 321.6160  38.4062 14.88281521193956
Epoch (UTC): 15 January 2018 04:31:18
Eccentricity: 0.0013966
inclination: 97.9168°
perigee height: 593 km
apogee height: 613 km
right ascension of ascending node: 290.9352°
argument of perigee: 321.6160°
revolutions per day: 14.88281521
mean anomaly at epoch: 38.4062°
orbit number at epoch: 19395

The dashed part of the orbit path shows where the satellite is in the earth's shadow,  

DLR